Flag Weather past 2 weeks in Cape Town, South Africa

Now
61 °F

Passing clouds.


Feels Like: 61 °F
Forecast: 63 / 81 °F
Wind: 10 mph from Southwest

Location: Cape Town International Airport

Current Time: Nov 24, 2014 at 5:10:49 AM

Latest Report: Nov 24, 2014 at 4:00 AM


Visibility: N/A

Pressure: 30.04 "Hg

Humidity: 88%

Dew point: 57 °F

Location of Cape TownLocation

Historic Weather in Cape Town — Graph

°F

Cape Town temperature yesterday

Maximum temperature yesterday: 73 °F (at 2:00 PM)
Minimum temperature yesterday: 55 °F (at 5:00 AM)
Average temperature yesterday: 65 °F

Past Weeks' High & Low Weather Summary

 TemperatureHumidityPressure
High79 °F (Nov 22, 1:00 PM)94% (Nov 12, 11:00 PM)30.42 "Hg (Nov 12, 11:00 PM)
Low46 °F (Nov 15, 6:00 AM)36% (Nov 18, 12:00 PM)29.65 "Hg (Nov 12, 5:00 PM)
Average65 °F65%30.02 "Hg
* Reported Nov 9 3:00 AM — Nov 24 3:00 AM, Cape Town, Weather by CustomWeather, © 2014

Note: Actual official high and low records may vary slightly from our data, if they occured in-between our weather recording intervals... More about our weather records

Advertising

Cape Town weather history for previous 24 hours

 ConditionsComfort  
Time TempWeatherWind HumidityBarometerVisibility
3:00 AM
Nov 24
61 °FClear.10 mph88%30.04 "Hg10 mi
2:00 AM61 °FClear.13 mph88%30.04 "Hg10 mi
1:00 AM63 °FPassing clouds.9 mph83%30.07 "HgN/A
12:00 AM63 °FPassing clouds.10 mph88%30.07 "HgN/A
11:00 PM
Nov 23
63 °FPassing clouds.12 mph88%30.07 "HgN/A
10:00 PM64 °FPassing clouds.13 mph83%30.07 "HgN/A
9:00 PM64 °FPassing clouds.14 mph88%30.04 "HgN/A
8:00 PM66 °FPassing clouds.18 mph83%30.04 "HgN/A
7:00 PM66 °FPassing clouds.20 mph83%30.01 "HgN/A
6:00 PM70 °FPartly sunny.21 mph73%30.01 "HgN/A
5:00 PM72 °FBroken clouds.22 mph69%30.01 "HgN/A
4:00 PM73 °FScattered clouds.20 mph69%29.98 "HgN/A
3:00 PM73 °FPartly sunny.20 mph65%30.01 "HgN/A
2:00 PM73 °FScattered clouds.15 mph65%30.01 "HgN/A
1:00 PM72 °FScattered clouds.9 mph69%30.01 "HgN/A
12:00 PM70 °FPartly sunny.9 mph64%30.01 "HgN/A
11:00 AM72 °FPartly sunny.6 mph57%30.01 "HgN/A
10:00 AM68 °FScattered clouds.6 mph64%30.01 "HgN/A
9:00 AM64 °FPassing clouds.10 mph73%30.01 "HgN/A
8:00 AM63 °FPassing clouds.7 mph77%30.01 "HgN/A
7:00 AM59 °FSunny.6 mph88%29.98 "Hg10 mi
6:00 AM55 °FClear.5 mph88%29.95 "Hg5 mi
5:00 AM55 °FSunny.5 mph88%29.92 "Hg10 mi
Weather by CustomWeather, © 2014

See weather overviewHow to use our weather pages